Погода в Ильинке

Россия / Республика Алтай     51°26′37″N   85°06′15″E
темп.,
°C
ветер,
м/с
пор.,
м/с
влажн.,
%
обл.,
%
осадки,
мм/ч
давл.,
гПа
погр.,
м
5 марта, пт
пт501:00−14ю358011 0.0 102374
04:00−13ю357486 0.0 102191
07:00−11ю467293 0.0 1020132
10:00−8ю3676100 0.0 1018203
13:00−2ююз41277100 0.0 10191346
16:00−3зюз7157370 0.4 10231963
19:00−8ююз128551 0.4 102730
22:00−9ю488067 0.0 1029184
6 марта, сб
сб601:00−10ю497783 0.0 1030248
04:00−9ю4976100 0.0 1029285
07:00−9ю4974100 0.0 1029252
10:00−8ю4972100 0.0 1027369
13:00−5ю4868100 0.0 1023475
16:00−3ю4868100 0.0 1020721
19:00−6ю3574100 0.0 102073
22:00−9ю357592 0.0 102179
7 марта, вс
вс701:00−9ю357396 0.0 102192
04:00−10ю3475100 0.0 102080
07:00−9ю3475100 0.0 102194
10:00−7ю2477100 0.0 1021144
13:00−2юз1275100 0.0 1021338
16:00−2ссз218392 0.0 1021455
19:00−7с119785 0.0 102321
22:00−8ююв1296100 0.1 102521
8 марта, пн
пн801:00−9ююв2292100 0.1 102523
04:00−9ю237999 0.0 102440
07:00−10ю3376100 0.0 102361
10:00−5ю367398 0.0 1020183
13:00+1ю387177 0.0 1017578
16:00+2ю288480 0.0 1015873
19:00−1ю387990 0.0 1015231
22:00−4ю3684100 0.0 1018140
9 марта, вт
вт901:00−6ююз358591 0.0 1019106
04:00−9ю33870 0.0 102273
07:00−10ю238733 0.0 102634
10:00−6ю228594 0.0 1027126
13:00−1зюз128255 0.0 1026638
16:00−2ссз228959 0.0 1025500
19:00−5св119872 0.1 102529
22:00−8ю239038 0.0 102426